Year,Month,Day,Hour,Minute,Value (Times are PST for temperature in C)
2012,08,17,00,00,19.50
2012,08,17,00,01,19.50
2012,08,17,00,02,19.50
2012,08,17,00,03,19.50
2012,08,17,00,04,19.40
2012,08,17,00,05,19.40
2012,08,17,00,06,19.40
2012,08,17,00,07,19.40
2012,08,17,00,08,19.40
2012,08,17,00,09,19.40
2012,08,17,00,10,19.40
2012,08,17,00,11,19.40
2012,08,17,00,12,19.40
2012,08,17,00,13,19.40
2012,08,17,00,14,19.30
2012,08,17,00,15,19.30
2012,08,17,00,16,19.30
2012,08,17,00,17,19.30
2012,08,17,00,18,19.20
2012,08,17,00,19,19.20
2012,08,17,00,20,19.20
2012,08,17,00,21,19.10
2012,08,17,00,22,19.10
2012,08,17,00,23,19.10
2012,08,17,00,24,19.10
2012,08,17,00,25,19.10
2012,08,17,00,26,19.10
2012,08,17,00,27,19.10
2012,08,17,00,28,19.00
2012,08,17,00,29,18.90
2012,08,17,00,30,18.90
2012,08,17,00,31,18.90
2012,08,17,00,32,18.90
2012,08,17,00,33,18.90
2012,08,17,00,34,18.90
2012,08,17,00,35,18.90
2012,08,17,00,36,18.90
2012,08,17,00,37,18.80
2012,08,17,00,38,18.80
2012,08,17,00,39,18.80
2012,08,17,00,40,18.80
2012,08,17,00,41,18.80
2012,08,17,00,42,18.70
2012,08,17,00,43,18.70
2012,08,17,00,44,18.70
2012,08,17,00,45,18.70
2012,08,17,00,46,18.70
2012,08,17,00,47,18.60
2012,08,17,00,48,18.60
2012,08,17,00,49,18.60
2012,08,17,00,50,18.60
2012,08,17,00,51,18.60
2012,08,17,00,52,18.60
2012,08,17,00,53,18.60
2012,08,17,00,54,18.60
2012,08,17,00,55,18.60
2012,08,17,00,56,18.60
2012,08,17,00,57,18.60
2012,08,17,00,58,18.60
2012,08,17,00,59,18.60
2012,08,17,01,00,18.60
2012,08,17,01,01,18.60
2012,08,17,01,02,18.60
2012,08,17,01,03,18.60
2012,08,17,01,04,18.60
2012,08,17,01,05,18.50
2012,08,17,01,06,18.50
2012,08,17,01,07,18.50
2012,08,17,01,08,18.50
2012,08,17,01,09,18.50
2012,08,17,01,10,18.50
2012,08,17,01,11,18.50
2012,08,17,01,12,18.40
2012,08,17,01,13,18.40
2012,08,17,01,14,18.40
2012,08,17,01,15,18.40
2012,08,17,01,16,18.40
2012,08,17,01,17,18.40
2012,08,17,01,18,18.40
2012,08,17,01,19,18.40
2012,08,17,01,20,18.30
2012,08,17,01,21,18.30
2012,08,17,01,22,18.30
2012,08,17,01,23,18.30
2012,08,17,01,24,18.30
2012,08,17,01,25,18.20
2012,08,17,01,26,18.20
2012,08,17,01,27,18.20
2012,08,17,01,28,18.20
2012,08,17,01,29,18.20
2012,08,17,01,30,18.20
2012,08,17,01,31,18.20
2012,08,17,01,32,18.10
2012,08,17,01,33,18.10
2012,08,17,01,34,18.10
2012,08,17,01,35,18.10
2012,08,17,01,36,18.10
2012,08,17,01,37,18.10
2012,08,17,01,38,18.10
2012,08,17,01,39,18.10
2012,08,17,01,40,18.10
2012,08,17,01,41,17.90
2012,08,17,01,42,17.90
2012,08,17,01,43,17.90
2012,08,17,01,44,17.90
2012,08,17,01,45,17.90
2012,08,17,01,46,17.90
2012,08,17,01,47,17.90
2012,08,17,01,48,17.90
2012,08,17,01,49,17.90
2012,08,17,01,50,17.90
2012,08,17,01,51,17.90
2012,08,17,01,52,17.90
2012,08,17,01,53,17.90
2012,08,17,01,54,17.80
2012,08,17,01,55,17.80
2012,08,17,01,56,17.80
2012,08,17,01,57,17.80
2012,08,17,01,58,17.80
2012,08,17,01,59,17.80
2012,08,17,02,00,17.80
2012,08,17,02,01,17.70
2012,08,17,02,02,17.70
2012,08,17,02,03,17.70
2012,08,17,02,04,17.70
2012,08,17,02,05,17.70
2012,08,17,02,06,17.70
2012,08,17,02,07,17.70
2012,08,17,02,08,17.70
2012,08,17,02,09,17.70
2012,08,17,02,10,17.60
2012,08,17,02,11,17.60
2012,08,17,02,12,17.60
2012,08,17,02,13,17.60
2012,08,17,02,14,17.60
2012,08,17,02,15,17.60
2012,08,17,02,16,17.60
2012,08,17,02,17,17.60
2012,08,17,02,18,17.70
2012,08,17,02,19,17.70
2012,08,17,02,20,17.70
2012,08,17,02,21,17.70
2012,08,17,02,22,17.70
2012,08,17,02,23,17.70
2012,08,17,02,24,17.70
2012,08,17,02,25,17.70
2012,08,17,02,26,17.70
2012,08,17,02,27,17.70
2012,08,17,02,28,17.70
2012,08,17,02,29,17.70
2012,08,17,02,30,17.70
2012,08,17,02,31,17.70
2012,08,17,02,32,17.70
2012,08,17,02,33,17.70
2012,08,17,02,34,17.70
2012,08,17,02,35,17.70
2012,08,17,02,36,17.60
2012,08,17,02,37,17.60
2012,08,17,02,38,17.60
2012,08,17,02,39,17.50
2012,08,17,02,40,17.50
2012,08,17,02,41,17.50
2012,08,17,02,42,17.40
2012,08,17,02,43,17.40
2012,08,17,02,44,17.40
2012,08,17,02,45,17.30
2012,08,17,02,46,17.30
2012,08,17,02,47,17.30
2012,08,17,02,48,17.30
2012,08,17,02,49,17.30
2012,08,17,02,50,17.30
2012,08,17,02,51,17.30
2012,08,17,02,52,17.30
2012,08,17,02,53,17.30
2012,08,17,02,54,17.30
2012,08,17,02,55,17.30
2012,08,17,02,56,17.30
2012,08,17,02,57,17.30
2012,08,17,02,58,17.30
2012,08,17,02,59,17.30
2012,08,17,03,00,17.30
2012,08,17,03,01,17.20
2012,08,17,03,02,17.20
2012,08,17,03,03,17.20
2012,08,17,03,04,17.20
2012,08,17,03,05,17.10
2012,08,17,03,06,17.10
2012,08,17,03,07,17.10
2012,08,17,03,08,17.10
2012,08,17,03,09,17.00
2012,08,17,03,10,17.00
2012,08,17,03,11,17.00
2012,08,17,03,12,17.00
2012,08,17,03,13,17.00
2012,08,17,03,14,17.00
2012,08,17,03,15,17.00
2012,08,17,03,16,17.00
2012,08,17,03,17,17.00
2012,08,17,03,18,17.00
2012,08,17,03,19,17.00
2012,08,17,03,20,16.90
2012,08,17,03,21,16.90
2012,08,17,03,22,16.90
2012,08,17,03,23,16.90
2012,08,17,03,24,16.90
2012,08,17,03,25,16.80
2012,08,17,03,26,16.80
2012,08,17,03,27,16.80
2012,08,17,03,28,16.80
2012,08,17,03,29,16.70
2012,08,17,03,30,16.70
2012,08,17,03,31,16.70
2012,08,17,03,32,16.70
2012,08,17,03,33,16.60
2012,08,17,03,34,16.60
2012,08,17,03,35,16.60
2012,08,17,03,36,16.60
2012,08,17,03,37,16.50
2012,08,17,03,38,16.40
2012,08,17,03,39,16.40
2012,08,17,03,40,16.40
2012,08,17,03,41,16.40
2012,08,17,03,42,16.40
2012,08,17,03,43,16.40
2012,08,17,03,44,16.40
2012,08,17,03,45,16.40
2012,08,17,03,46,16.40
2012,08,17,03,47,16.40
2012,08,17,03,48,16.30
2012,08,17,03,49,16.30
2012,08,17,03,50,16.30
2012,08,17,03,51,16.30
2012,08,17,03,52,16.30
2012,08,17,03,53,16.20
2012,08,17,03,54,16.20
2012,08,17,03,55,16.20
2012,08,17,03,56,16.20
2012,08,17,03,57,16.20
2012,08,17,03,58,16.10
2012,08,17,03,59,16.10
2012,08,17,04,00,16.10
2012,08,17,04,01,16.10
2012,08,17,04,02,16.10
2012,08,17,04,03,16.10
2012,08,17,04,04,16.10
2012,08,17,04,05,16.10
2012,08,17,04,06,16.10
2012,08,17,04,07,16.10
2012,08,17,04,08,16.10
2012,08,17,04,09,16.10
2012,08,17,04,10,16.10
2012,08,17,04,11,16.10
2012,08,17,04,12,16.10
2012,08,17,04,13,16.10
2012,08,17,04,14,16.10
2012,08,17,04,15,16.10
2012,08,17,04,16,16.10
2012,08,17,04,17,16.10
2012,08,17,04,18,16.10
2012,08,17,04,19,16.10
2012,08,17,04,20,16.10
2012,08,17,04,21,16.10
2012,08,17,04,22,16.10
2012,08,17,04,23,16.10
2012,08,17,04,24,16.10
2012,08,17,04,25,15.90
2012,08,17,04,26,15.90
2012,08,17,04,27,15.90
2012,08,17,04,28,15.90
2012,08,17,04,29,15.90
2012,08,17,04,30,15.90
2012,08,17,04,31,15.80
2012,08,17,04,32,15.80
2012,08,17,04,33,15.80
2012,08,17,04,34,15.80
2012,08,17,04,35,15.80
2012,08,17,04,36,15.80
2012,08,17,04,37,15.80
2012,08,17,04,38,15.80
2012,08,17,04,39,15.80
2012,08,17,04,40,15.80
2012,08,17,04,41,15.80
2012,08,17,04,42,15.80
2012,08,17,04,43,15.80
2012,08,17,04,44,15.80
2012,08,17,04,45,15.80
2012,08,17,04,46,15.80
2012,08,17,04,47,15.80
2012,08,17,04,48,15.80
2012,08,17,04,49,15.80
2012,08,17,04,50,15.80
2012,08,17,04,51,15.80
2012,08,17,04,52,15.70
2012,08,17,04,53,15.70
2012,08,17,04,54,15.70
2012,08,17,04,55,15.70
2012,08,17,04,56,15.60
2012,08,17,04,57,15.60
2012,08,17,04,58,15.60
2012,08,17,04,59,15.60
2012,08,17,05,00,15.60
2012,08,17,05,01,15.50
2012,08,17,05,02,15.50
2012,08,17,05,03,15.50
2012,08,17,05,04,15.50
2012,08,17,05,05,15.50
2012,08,17,05,06,15.50
2012,08,17,05,07,15.50
2012,08,17,05,08,15.40
2012,08,17,05,09,15.50
2012,08,17,05,10,15.50
2012,08,17,05,11,15.50
2012,08,17,05,12,15.40
2012,08,17,05,13,15.40
2012,08,17,05,14,15.40
2012,08,17,05,15,15.40
2012,08,17,05,16,15.40
2012,08,17,05,17,15.40
2012,08,17,05,18,15.40
2012,08,17,05,19,15.40
2012,08,17,05,20,15.40
2012,08,17,05,21,15.40
2012,08,17,05,22,15.40
2012,08,17,05,23,15.30
2012,08,17,05,24,15.30
2012,08,17,05,25,15.30
2012,08,17,05,26,15.30
2012,08,17,05,27,15.30
2012,08,17,05,28,15.30
2012,08,17,05,29,15.30
2012,08,17,05,30,15.30
2012,08,17,05,31,15.30
2012,08,17,05,32,15.30
2012,08,17,05,33,15.30
2012,08,17,05,34,15.20
2012,08,17,05,35,15.20
2012,08,17,05,36,15.20
2012,08,17,05,37,15.20
2012,08,17,05,38,15.20
2012,08,17,05,39,15.20
2012,08,17,05,40,15.20
2012,08,17,05,41,15.10
2012,08,17,05,42,15.10
2012,08,17,05,43,15.10
2012,08,17,05,44,15.10
2012,08,17,05,45,15.10
2012,08,17,05,46,15.10
2012,08,17,05,47,15.00
2012,08,17,05,48,15.00
2012,08,17,05,49,15.00
2012,08,17,05,50,15.10
2012,08,17,05,51,15.10
2012,08,17,05,52,15.10
2012,08,17,05,53,15.10
2012,08,17,05,54,15.20
2012,08,17,05,55,15.20
2012,08,17,05,56,15.20
2012,08,17,05,57,15.20
2012,08,17,05,58,15.20
2012,08,17,05,59,15.20
2012,08,17,06,00,15.30
2012,08,17,06,01,15.30
2012,08,17,06,02,15.30
2012,08,17,06,03,15.30
2012,08,17,06,04,15.30
2012,08,17,06,05,15.30
2012,08,17,06,06,15.30
2012,08,17,06,07,15.30
2012,08,17,06,08,15.30
2012,08,17,06,09,15.30
2012,08,17,06,10,15.20
2012,08,17,06,11,15.20
2012,08,17,06,12,15.20
2012,08,17,06,13,15.20
2012,08,17,06,14,15.10
2012,08,17,06,15,15.10
2012,08,17,06,16,15.10
2012,08,17,06,17,15.10
2012,08,17,06,18,15.10
2012,08,17,06,19,15.10
2012,08,17,06,20,15.00
2012,08,17,06,21,15.10
2012,08,17,06,22,15.10
2012,08,17,06,23,15.10
2012,08,17,06,24,15.10
2012,08,17,06,25,15.10
2012,08,17,06,26,15.10
2012,08,17,06,27,15.10
2012,08,17,06,28,15.10
2012,08,17,06,29,15.10
2012,08,17,06,30,15.00
2012,08,17,06,31,15.00
2012,08,17,06,32,15.00
2012,08,17,06,33,15.00
2012,08,17,06,34,15.00
2012,08,17,06,35,15.00
2012,08,17,06,36,15.00
2012,08,17,06,37,15.00
2012,08,17,06,38,15.00
2012,08,17,06,39,15.10
2012,08,17,06,40,15.10
2012,08,17,06,41,15.10
2012,08,17,06,42,15.10
2012,08,17,06,43,15.10
2012,08,17,06,44,15.20
2012,08,17,06,45,15.20
2012,08,17,06,46,15.20
2012,08,17,06,47,15.20
2012,08,17,06,48,15.20
2012,08,17,06,49,15.30
2012,08,17,06,50,15.30
2012,08,17,06,51,15.30
2012,08,17,06,52,15.30
2012,08,17,06,53,15.40
2012,08,17,06,54,15.50
2012,08,17,06,55,15.50
2012,08,17,06,56,15.60
2012,08,17,06,57,15.60
2012,08,17,06,58,15.70
2012,08,17,06,59,15.70
2012,08,17,07,00,15.80
2012,08,17,07,01,15.80
2012,08,17,07,02,15.80
2012,08,17,07,03,15.90
2012,08,17,07,04,15.90
2012,08,17,07,05,16.10
2012,08,17,07,06,16.10
2012,08,17,07,07,16.10
2012,08,17,07,08,16.20
2012,08,17,07,09,16.20
2012,08,17,07,10,16.20
2012,08,17,07,11,16.30
2012,08,17,07,12,16.30
2012,08,17,07,13,16.40
2012,08,17,07,14,16.50
2012,08,17,07,15,16.60
2012,08,17,07,16,16.70
2012,08,17,07,17,16.90
2012,08,17,07,18,16.90
2012,08,17,07,19,17.00
2012,08,17,07,20,17.10
2012,08,17,07,21,17.10
2012,08,17,07,22,17.30
2012,08,17,07,23,17.30
2012,08,17,07,24,17.40
2012,08,17,07,25,17.50
2012,08,17,07,26,17.60
2012,08,17,07,27,17.70
2012,08,17,07,28,17.80
2012,08,17,07,29,17.80
2012,08,17,07,30,17.90
2012,08,17,07,31,17.90
2012,08,17,07,32,17.90
2012,08,17,07,33,17.90
2012,08,17,07,34,17.90
2012,08,17,07,35,17.90
2012,08,17,07,36,18.10
2012,08,17,07,37,18.10
2012,08,17,07,38,18.30
2012,08,17,07,39,18.40
2012,08,17,07,40,18.60
2012,08,17,07,41,18.70
2012,08,17,07,42,18.80
2012,08,17,07,43,18.90
2012,08,17,07,44,19.00
2012,08,17,07,45,19.10
2012,08,17,07,46,19.10
2012,08,17,07,47,19.20
2012,08,17,07,48,19.30
2012,08,17,07,49,19.40
2012,08,17,07,50,19.50
2012,08,17,07,51,19.60
2012,08,17,07,52,19.70
2012,08,17,07,53,19.80
2012,08,17,07,54,19.90
2012,08,17,07,55,20.10
2012,08,17,07,56,20.20
2012,08,17,07,57,20.30
2012,08,17,07,58,20.50
2012,08,17,07,59,20.50
2012,08,17,08,00,20.60
2012,08,17,08,01,20.60
2012,08,17,08,02,20.60
2012,08,17,08,03,20.60
2012,08,17,08,04,20.70
2012,08,17,08,05,20.70
2012,08,17,08,06,20.80
2012,08,17,08,07,20.80
2012,08,17,08,08,20.90
2012,08,17,08,09,20.90
2012,08,17,08,10,21.00
2012,08,17,08,11,21.10
2012,08,17,08,12,21.10
2012,08,17,08,13,21.20
2012,08,17,08,14,21.30
2012,08,17,08,15,21.30
2012,08,17,08,16,21.40
2012,08,17,08,17,21.40
2012,08,17,08,18,21.50
2012,08,17,08,19,21.60
2012,08,17,08,20,21.60
2012,08,17,08,21,21.60
2012,08,17,08,22,21.60
2012,08,17,08,23,21.60
2012,08,17,08,24,21.70
2012,08,17,08,25,21.70
2012,08,17,08,26,21.80
2012,08,17,08,27,21.80
2012,08,17,08,28,21.80
2012,08,17,08,29,21.80
2012,08,17,08,30,21.80
2012,08,17,08,31,21.70
2012,08,17,08,32,21.70
2012,08,17,08,33,21.70
2012,08,17,08,34,21.70
2012,08,17,08,35,21.70
2012,08,17,08,36,21.70
2012,08,17,08,37,21.70
2012,08,17,08,38,21.70
2012,08,17,08,39,21.80
2012,08,17,08,40,21.80
2012,08,17,08,41,21.90
2012,08,17,08,42,21.90
2012,08,17,08,43,21.90
2012,08,17,08,44,21.90
2012,08,17,08,45,21.90
2012,08,17,08,46,21.90
2012,08,17,08,47,21.80
2012,08,17,08,48,21.80
2012,08,17,08,49,21.90
2012,08,17,08,50,21.90
2012,08,17,08,51,21.90
2012,08,17,08,52,22.00
2012,08,17,08,53,22.10
2012,08,17,08,54,22.10
2012,08,17,08,55,22.20
2012,08,17,08,56,22.30
2012,08,17,08,57,22.30
2012,08,17,08,58,22.40
2012,08,17,08,59,22.40
2012,08,17,09,00,22.40
2012,08,17,09,01,22.50
2012,08,17,09,02,22.60
2012,08,17,09,03,22.60
2012,08,17,09,04,22.70
2012,08,17,09,05,22.80
2012,08,17,09,06,22.80
2012,08,17,09,07,22.90
2012,08,17,09,08,22.90
2012,08,17,09,09,23.00
2012,08,17,09,10,23.10
2012,08,17,09,11,23.10
2012,08,17,09,12,23.20
2012,08,17,09,13,23.20
2012,08,17,09,14,23.30
2012,08,17,09,15,23.30
2012,08,17,09,16,23.30
2012,08,17,09,17,23.30
2012,08,17,09,18,23.30
2012,08,17,09,19,23.20
2012,08,17,09,20,23.20
2012,08,17,09,21,23.30
2012,08,17,09,22,23.30
2012,08,17,09,23,23.30
2012,08,17,09,24,23.40
2012,08,17,09,25,23.40
2012,08,17,09,26,23.60
2012,08,17,09,27,23.60
2012,08,17,09,28,23.60
2012,08,17,09,29,23.60
2012,08,17,09,30,23.60
2012,08,17,09,31,23.70
2012,08,17,09,32,23.70
2012,08,17,09,33,23.70
2012,08,17,09,34,23.80
2012,08,17,09,35,23.80
2012,08,17,09,36,23.90
2012,08,17,09,37,23.90
2012,08,17,09,38,23.90
2012,08,17,09,39,23.90
2012,08,17,09,40,23.90
2012,08,17,09,41,23.90
2012,08,17,09,42,23.90
2012,08,17,09,43,23.90
2012,08,17,09,44,23.80
2012,08,17,09,45,23.80
2012,08,17,09,46,23.70
2012,08,17,09,47,23.70
2012,08,17,09,48,23.70
2012,08,17,09,49,23.70
2012,08,17,09,50,23.70
2012,08,17,09,51,23.70
2012,08,17,09,52,23.80
2012,08,17,09,53,23.80
2012,08,17,09,54,23.80
2012,08,17,09,55,23.80
2012,08,17,09,56,23.80
2012,08,17,09,57,23.80
2012,08,17,09,58,23.80
2012,08,17,09,59,23.80
2012,08,17,10,00,23.80
2012,08,17,10,01,23.80
2012,08,17,10,02,23.80
2012,08,17,10,03,23.80
2012,08,17,10,04,23.80
2012,08,17,10,05,23.80
2012,08,17,10,06,23.90
2012,08,17,10,07,23.90
2012,08,17,10,08,23.90
2012,08,17,10,09,23.90
2012,08,17,10,10,23.80
2012,08,17,10,11,23.80
2012,08,17,10,12,23.90
2012,08,17,10,13,23.80
2012,08,17,10,14,23.80
2012,08,17,10,15,23.90
2012,08,17,10,16,23.90
2012,08,17,10,17,23.90
2012,08,17,10,18,23.90
2012,08,17,10,19,23.90
2012,08,17,10,20,23.90
2012,08,17,10,21,23.90
2012,08,17,10,22,23.90
2012,08,17,10,23,23.90
2012,08,17,10,24,23.90
2012,08,17,10,25,24.00
2012,08,17,10,26,24.10
2012,08,17,10,27,24.10
2012,08,17,10,28,24.20
2012,08,17,10,29,24.30
2012,08,17,10,30,24.30
2012,08,17,10,31,24.40
2012,08,17,10,32,24.40
2012,08,17,10,33,24.40
2012,08,17,10,34,24.40
2012,08,17,10,35,24.30
2012,08,17,10,36,24.30
2012,08,17,10,37,24.30
2012,08,17,10,38,24.20
2012,08,17,10,39,24.10
2012,08,17,10,40,24.10
2012,08,17,10,41,24.10
2012,08,17,10,42,24.10
2012,08,17,10,43,24.10
2012,08,17,10,44,24.20
2012,08,17,10,45,24.20
2012,08,17,10,46,24.20
2012,08,17,10,47,24.20
2012,08,17,10,48,24.20
2012,08,17,10,49,24.20
2012,08,17,10,50,24.20
2012,08,17,10,51,24.20
2012,08,17,10,52,24.30
2012,08,17,10,53,24.30
2012,08,17,10,54,24.30
2012,08,17,10,55,24.40
2012,08,17,10,56,24.50
2012,08,17,10,57,24.50
2012,08,17,10,58,24.60
2012,08,17,10,59,24.60
2012,08,17,11,00,24.60
2012,08,17,11,01,24.70
2012,08,17,11,02,24.70
2012,08,17,11,03,24.60
2012,08,17,11,04,24.60
2012,08,17,11,05,24.70
2012,08,17,11,06,24.70
2012,08,17,11,07,24.80
2012,08,17,11,08,24.90
2012,08,17,11,09,25.10
2012,08,17,11,10,25.20
2012,08,17,11,11,25.30
2012,08,17,11,12,25.40
2012,08,17,11,13,25.40
2012,08,17,11,14,25.40
2012,08,17,11,15,25.50
2012,08,17,11,16,25.50
2012,08,17,11,17,25.50
2012,08,17,11,18,25.50
2012,08,17,11,19,25.60
2012,08,17,11,20,25.60
2012,08,17,11,21,25.70
2012,08,17,11,22,25.80
2012,08,17,11,23,25.90
2012,08,17,11,24,26.00
2012,08,17,11,25,26.00
2012,08,17,11,26,26.00
2012,08,17,11,27,26.00
2012,08,17,11,28,26.10
2012,08,17,11,29,26.10
2012,08,17,11,30,26.20
2012,08,17,11,31,26.20
2012,08,17,11,32,26.30
2012,08,17,11,33,26.40
2012,08,17,11,34,26.40
2012,08,17,11,35,26.50
2012,08,17,11,36,26.60
2012,08,17,11,37,26.60
2012,08,17,11,38,26.60
2012,08,17,11,39,26.60
2012,08,17,11,40,26.70
2012,08,17,11,41,26.70
2012,08,17,11,42,26.60
2012,08,17,11,43,26.60
2012,08,17,11,44,26.60
2012,08,17,11,45,26.60
2012,08,17,11,46,26.60
2012,08,17,11,47,26.60
2012,08,17,11,48,26.60
2012,08,17,11,49,26.60
2012,08,17,11,50,26.60
2012,08,17,11,51,26.60
2012,08,17,11,52,26.60
2012,08,17,11,53,26.60
2012,08,17,11,54,26.60
2012,08,17,11,55,26.60
2012,08,17,11,56,26.60
2012,08,17,11,57,26.60
2012,08,17,11,58,26.60
2012,08,17,11,59,26.70
2012,08,17,12,00,26.70
2012,08,17,12,01,26.70
2012,08,17,12,02,26.80
2012,08,17,12,03,26.90
2012,08,17,12,04,27.10
2012,08,17,12,05,27.10
2012,08,17,12,06,27.20
2012,08,17,12,07,27.20
2012,08,17,12,08,27.20
2012,08,17,12,09,27.10
2012,08,17,12,10,27.00
2012,08,17,12,11,26.90
2012,08,17,12,12,26.80
2012,08,17,12,13,26.80
2012,08,17,12,14,26.80
2012,08,17,12,15,26.90
2012,08,17,12,16,27.10
2012,08,17,12,17,27.20
2012,08,17,12,18,27.20
2012,08,17,12,19,27.10
2012,08,17,12,20,27.00
2012,08,17,12,21,26.90
2012,08,17,12,22,26.90
2012,08,17,12,23,26.90
2012,08,17,12,24,26.90
2012,08,17,12,25,26.90
2012,08,17,12,26,26.90
2012,08,17,12,27,27.00
2012,08,17,12,28,27.10
2012,08,17,12,29,27.10
2012,08,17,12,30,27.10
2012,08,17,12,31,27.10
2012,08,17,12,32,27.10
2012,08,17,12,33,27.10
2012,08,17,12,34,27.20
2012,08,17,12,35,27.20
2012,08,17,12,36,27.20
2012,08,17,12,37,27.20
2012,08,17,12,38,27.20
2012,08,17,12,39,27.20
2012,08,17,12,40,27.30
2012,08,17,12,41,27.30
2012,08,17,12,42,27.30
2012,08,17,12,43,27.50
2012,08,17,12,44,27.60
2012,08,17,12,45,27.60
2012,08,17,12,46,27.70
2012,08,17,12,47,27.70
2012,08,17,12,48,27.70
2012,08,17,12,49,27.80
2012,08,17,12,50,27.80
2012,08,17,12,51,27.80
2012,08,17,12,52,27.80
2012,08,17,12,53,27.90
2012,08,17,12,54,28.00
2012,08,17,12,55,28.10
2012,08,17,12,56,28.10
2012,08,17,12,57,28.00
2012,08,17,12,58,28.00
2012,08,17,12,59,28.00
2012,08,17,13,00,28.00
2012,08,17,13,01,27.90
2012,08,17,13,02,27.90
2012,08,17,13,03,28.00
2012,08,17,13,04,28.20
2012,08,17,13,05,28.20
2012,08,17,13,06,28.20
2012,08,17,13,07,28.20
2012,08,17,13,08,28.10
2012,08,17,13,09,28.00
2012,08,17,13,10,28.00
2012,08,17,13,11,27.90
2012,08,17,13,12,27.80
2012,08,17,13,13,27.80
2012,08,17,13,14,27.80
2012,08,17,13,15,27.80
2012,08,17,13,16,27.80
2012,08,17,13,17,27.80
2012,08,17,13,18,27.90
2012,08,17,13,19,27.90
2012,08,17,13,20,27.90
2012,08,17,13,21,27.90
2012,08,17,13,22,27.90
2012,08,17,13,23,27.90
2012,08,17,13,24,27.90
2012,08,17,13,25,27.90
2012,08,17,13,26,27.90
2012,08,17,13,27,28.00
2012,08,17,13,28,28.10
2012,08,17,13,29,28.10
2012,08,17,13,30,28.20
2012,08,17,13,31,28.10
2012,08,17,13,32,28.10
2012,08,17,13,33,28.10
2012,08,17,13,34,28.10
2012,08,17,13,35,28.20
2012,08,17,13,36,28.30
2012,08,17,13,37,28.30
2012,08,17,13,38,28.30
2012,08,17,13,39,28.40
2012,08,17,13,40,28.40
2012,08,17,13,41,28.40
2012,08,17,13,42,28.30
2012,08,17,13,43,28.30
2012,08,17,13,44,28.40
2012,08,17,13,45,28.40
2012,08,17,13,46,28.30
2012,08,17,13,47,28.30
2012,08,17,13,48,28.40
2012,08,17,13,49,28.40
2012,08,17,13,50,28.40
2012,08,17,13,51,28.30
2012,08,17,13,52,28.40
2012,08,17,13,53,28.40
2012,08,17,13,54,28.40
2012,08,17,13,55,28.60
2012,08,17,13,56,28.60
2012,08,17,13,57,28.60
2012,08,17,13,58,28.60
2012,08,17,13,59,28.60
2012,08,17,14,00,28.60
2012,08,17,14,01,28.60
2012,08,17,14,02,28.60
2012,08,17,14,03,28.60
2012,08,17,14,04,28.60
2012,08,17,14,05,28.60
2012,08,17,14,06,28.60
2012,08,17,14,07,28.70
2012,08,17,14,08,28.70
2012,08,17,14,09,28.70
2012,08,17,14,10,28.60
2012,08,17,14,11,28.40
2012,08,17,14,12,28.40
2012,08,17,14,13,28.40
2012,08,17,14,14,28.40
2012,08,17,14,15,28.30
2012,08,17,14,16,28.40
2012,08,17,14,17,28.30
2012,08,17,14,18,28.50
2012,08,17,14,19,28.60
2012,08,17,14,20,28.70
2012,08,17,14,21,28.80
2012,08,17,14,22,28.80
2012,08,17,14,23,28.80
2012,08,17,14,24,28.80
2012,08,17,14,25,28.70
2012,08,17,14,26,28.70
2012,08,17,14,27,28.70
2012,08,17,14,28,28.70
2012,08,17,14,29,28.70
2012,08,17,14,30,28.70
2012,08,17,14,31,28.80
2012,08,17,14,32,28.90
2012,08,17,14,33,28.90
2012,08,17,14,34,28.90
2012,08,17,14,35,29.00
2012,08,17,14,36,29.00
2012,08,17,14,37,28.90
2012,08,17,14,38,28.90
2012,08,17,14,39,28.90
2012,08,17,14,40,28.90
2012,08,17,14,41,28.90
2012,08,17,14,42,29.00
2012,08,17,14,43,29.10
2012,08,17,14,44,29.10
2012,08,17,14,45,29.00
2012,08,17,14,46,28.90
2012,08,17,14,47,28.90
2012,08,17,14,48,28.90
2012,08,17,14,49,28.90
2012,08,17,14,50,28.70
2012,08,17,14,51,28.60
2012,08,17,14,52,28.60
2012,08,17,14,53,28.60
2012,08,17,14,54,28.70
2012,08,17,14,55,28.70
2012,08,17,14,56,28.70
2012,08,17,14,57,28.70
2012,08,17,14,58,28.60
2012,08,17,14,59,28.60
2012,08,17,15,00,28.60
2012,08,17,15,01,28.60
2012,08,17,15,02,28.70
2012,08,17,15,03,28.80
2012,08,17,15,04,28.90
2012,08,17,15,05,28.90
2012,08,17,15,06,29.10
2012,08,17,15,07,28.90
2012,08,17,15,08,28.80
2012,08,17,15,09,28.70
2012,08,17,15,10,28.70
2012,08,17,15,11,28.70
2012,08,17,15,12,28.70
2012,08,17,15,13,28.80
2012,08,17,15,14,28.80
2012,08,17,15,15,28.80
2012,08,17,15,16,28.80
2012,08,17,15,17,28.80
2012,08,17,15,18,28.80
2012,08,17,15,19,28.80
2012,08,17,15,20,28.90
2012,08,17,15,21,28.90
2012,08,17,15,22,28.90
2012,08,17,15,23,28.90
2012,08,17,15,24,28.90
2012,08,17,15,25,29.00
2012,08,17,15,26,28.90
2012,08,17,15,27,28.90
2012,08,17,15,28,28.90
2012,08,17,15,29,28.90
2012,08,17,15,30,28.90
2012,08,17,15,31,28.90
2012,08,17,15,32,28.90
2012,08,17,15,33,28.90
2012,08,17,15,34,29.00
2012,08,17,15,35,29.00
2012,08,17,15,36,28.90
2012,08,17,15,37,28.90
2012,08,17,15,38,28.90
2012,08,17,15,39,28.90
2012,08,17,15,40,28.90
2012,08,17,15,41,29.00
2012,08,17,15,42,29.10
2012,08,17,15,43,28.90
2012,08,17,15,44,28.90
2012,08,17,15,45,28.90
2012,08,17,15,46,28.90
2012,08,17,15,47,28.90
2012,08,17,15,48,28.90
2012,08,17,15,49,28.90
2012,08,17,15,50,28.90
2012,08,17,15,51,28.90
2012,08,17,15,52,28.90
2012,08,17,15,53,29.00
2012,08,17,15,54,29.10
2012,08,17,15,55,29.10
2012,08,17,15,56,29.30
2012,08,17,15,57,29.30
2012,08,17,15,58,29.40
2012,08,17,15,59,29.50
2012,08,17,16,00,29.60
2012,08,17,16,01,29.70
2012,08,17,16,02,29.80
2012,08,17,16,03,29.90
2012,08,17,16,04,29.90
2012,08,17,16,05,30.10
2012,08,17,16,06,30.10
2012,08,17,16,07,30.20
2012,08,17,16,08,30.20
2012,08,17,16,09,30.20
2012,08,17,16,10,30.10
2012,08,17,16,11,29.90
2012,08,17,16,12,29.80
2012,08,17,16,13,29.70
2012,08,17,16,14,29.70
2012,08,17,16,15,29.80
2012,08,17,16,16,29.80
2012,08,17,16,17,29.80
2012,08,17,16,18,29.80
2012,08,17,16,19,29.80
2012,08,17,16,20,29.80
2012,08,17,16,21,29.90
2012,08,17,16,22,30.00
2012,08,17,16,23,30.10
2012,08,17,16,24,30.20
2012,08,17,16,25,30.30
2012,08,17,16,26,30.30
2012,08,17,16,27,30.20
2012,08,17,16,28,30.20
2012,08,17,16,29,30.20
2012,08,17,16,30,30.20
2012,08,17,16,31,30.20
2012,08,17,16,32,30.20
2012,08,17,16,33,30.20
2012,08,17,16,34,30.20
2012,08,17,16,35,30.20
2012,08,17,16,36,30.20
2012,08,17,16,37,30.20
2012,08,17,16,38,30.20
2012,08,17,16,39,30.10
2012,08,17,16,40,30.10
2012,08,17,16,41,30.10
2012,08,17,16,42,30.10
2012,08,17,16,43,30.10
2012,08,17,16,44,30.20
2012,08,17,16,45,30.20
2012,08,17,16,46,30.20
2012,08,17,16,47,30.20
2012,08,17,16,48,30.20
2012,08,17,16,49,30.20
2012,08,17,16,50,30.20
2012,08,17,16,51,30.20
2012,08,17,16,52,30.20
2012,08,17,16,53,30.20
2012,08,17,16,54,30.20
2012,08,17,16,55,30.20
2012,08,17,16,56,30.10
2012,08,17,16,57,30.10
2012,08,17,16,58,30.10
2012,08,17,16,59,30.20
2012,08,17,17,00,30.20
2012,08,17,17,01,30.20
2012,08,17,17,02,30.10
2012,08,17,17,03,30.10
2012,08,17,17,04,30.00
2012,08,17,17,05,29.90
2012,08,17,17,06,29.90
2012,08,17,17,07,29.80
2012,08,17,17,08,29.80
2012,08,17,17,09,29.80
2012,08,17,17,10,29.90
2012,08,17,17,11,29.90
2012,08,17,17,12,29.80
2012,08,17,17,13,29.70
2012,08,17,17,14,29.60
2012,08,17,17,15,29.60
2012,08,17,17,16,29.60
2012,08,17,17,17,29.60
2012,08,17,17,18,29.50
2012,08,17,17,19,29.30